Victoria, British Columbia

5:49 AM PDT on May 24, 2017 (GMT -0700)
Victoria International

Weather History for CYYJ - March, 2013

Change the Weather History Date:

Thursday, March 28, 2013

  Actual Average Record
Temperature  
Mean Temperature 47 °F -  
Max Temperature 57 °F 55 °F 57 °F (2004)
Min Temperature 37 °F 39 °F 32 °F (1999)
Degree Days  
Heating Degree Days 18    
Moisture  
Dew Point 41 °F    
Average Humidity 75    
Maximum Humidity 93    
Minimum Humidity 47    
Precipitation  
Precipitation 0.00 in 0.06 in - ()
Sea Level Pressure  
Sea Level Pressure 30.08 in    
Wind  
Wind Speed 4 mph ()    
Max Wind Speed 8 mph    
Max Gust Speed -    
Averages and records for this station are not official NWS values.
T = Trace of Precipitation, MM = Missing Value Source: Averaged Metar Reports

Daily Weather History Graph

Daily Weather History Graph

Search for Another Location

Airport or City:

Trip Planner

Search our weather history database for the weather conditions in past years. The results will help you decide how hot, cold, wet, or windy it might be!

Date:

Astronomy

Mar. 28, 2013 Rise Set
Actual Time 6:59 AM PDT 7:39 PM PDT
Civil Twilight 6:27 AM PDT 8:10 PM PDT
Nautical Twilight 5:49 AM PDT 8:48 PM PDT
Astronomical Twilight 5:10 AM PDT 9:28 PM PDT
Moon 9:50 PM PDT (3/28) 7:20 AM PDT (3/28)
Length of Visible Light 13h 43m
Length of Day
12h 40m
Full, 98% of the Moon is Illuminated
Mar 28
Full
Apr 2
Last Quarter
Apr 10
New
Apr 18
First Quarter
Apr 25
Full

Hourly Weather History & Observations

Time (PDT) Temp. Windchill Dew Point Humidity Pressure Visibility Wind Dir Wind Speed Gust Speed Precip Events Conditions
12:00 AM 42.8 °F - 37.4 °F 81% 30.02 in 30.0 mi Calm Calm - N/A   Mostly Cloudy
1:00 AM 41.0 °F 38.0 °F 37.4 °F 87% 30.02 in 30.0 mi WSW 4.6 mph - N/A   Mostly Cloudy
2:00 AM 41.0 °F 38.0 °F 37.4 °F 87% 30.03 in 30.0 mi WNW 4.6 mph - N/A   Scattered Clouds
3:00 AM 39.2 °F 35.9 °F 37.4 °F 93% 30.03 in 30.0 mi West 4.6 mph - N/A   Partly Cloudy
4:00 AM 41.0 °F 38.0 °F 37.4 °F 87% 30.04 in 30.0 mi WSW 4.6 mph - N/A   Partly Cloudy
5:00 AM 41 °F - 38 °F 85% 30.04 in 28 mi WSW 4.6 mph - -   Scattered Clouds
5:00 AM 41.0 °F 38.0 °F 37.4 °F 87% 30.04 in 30.0 mi WSW 4.6 mph - N/A   Partly Cloudy
6:00 AM 41.0 °F 36.4 °F 37.4 °F 87% 30.05 in 30.0 mi WSW 6.9 mph - N/A   Mostly Cloudy
7:00 AM 42.8 °F 40.1 °F 39.2 °F 87% 30.06 in 30.0 mi WSW 4.6 mph - N/A   Mostly Cloudy
8:00 AM 44.6 °F 42.2 °F 41.0 °F 87% 30.08 in 30.0 mi West 4.6 mph - N/A   Mostly Cloudy
9:00 AM 46.4 °F 44.3 °F 42.8 °F 87% 30.08 in 30.0 mi WNW 4.6 mph - N/A   Mostly Cloudy
10:00 AM 51.8 °F - 42.8 °F 71% 30.10 in 30.0 mi WNW 2.3 mph - N/A   Mostly Cloudy
11:00 AM 54 °F - 44 °F 60% 30.11 in 28 mi Calm Calm - -   Scattered Clouds
11:00 AM 53.6 °F - 44.6 °F 72% 30.11 in 30.0 mi Calm Calm - N/A   Mostly Cloudy
12:00 PM 53.6 °F - 42.8 °F 67% 30.11 in 30.0 mi East 4.6 mph - N/A   Mostly Cloudy
1:00 PM 53.6 °F - 42.8 °F 67% 30.11 in 30.0 mi ESE 5.8 mph - N/A   Mostly Cloudy
2:00 PM 55.4 °F - 42.8 °F 63% 30.11 in 30.0 mi SE 5.8 mph - N/A   Mostly Cloudy
3:00 PM 55.4 °F - 42.8 °F 63% 30.09 in 30.0 mi ESE 6.9 mph - N/A   Scattered Clouds
4:00 PM 55.4 °F - 42.8 °F 63% 30.09 in 30.0 mi ESE 8.1 mph - N/A   Scattered Clouds
5:00 PM 57 °F - 42 °F 47% 30.09 in 28 mi ESE 6.9 mph - -   Scattered Clouds
5:00 PM 57.2 °F - 42.8 °F 59% 30.09 in 30.0 mi ESE 6.9 mph - N/A   Partly Cloudy
6:00 PM 57.2 °F - 42.8 °F 59% 30.09 in 30.0 mi SE 6.9 mph - N/A   Partly Cloudy
7:00 PM 57.2 °F - 41.0 °F 55% 30.09 in 30.0 mi SSE 4.6 mph - N/A   Partly Cloudy
8:00 PM 50.0 °F - 42.8 °F 76% 30.09 in 30.0 mi NE 5.8 mph - N/A   Partly Cloudy
9:00 PM 46.4 °F - 41.0 °F 81% 30.11 in 30.0 mi Calm Calm - N/A   Partly Cloudy
10:00 PM 44.6 °F 43.1 °F 39.2 °F 81% 30.13 in 30.0 mi WNW 3.5 mph - N/A   Partly Cloudy
11:00 PM 43 °F - 40 °F 84% 30.14 in 28 mi WSW 2.3 mph - -   Scattered Clouds
11:00 PM 42.8 °F - 39.2 °F 87% 30.14 in 30.0 mi WSW 2.3 mph - N/A   Partly Cloudy